Location: Newark
(46.7000°N, 60.6000°W)
Time: 19:46:14
(UTC+00:00)

N. Korean satellite - Pass Details

Date: 28 September 2020
Orbit: 452 x 505 km, 97.2° (Epoch: 28 October)

Event Time Altitude Azimuth Distance (km) Brightness Sun altitude
Rises 08:42:20 0° 28° (NNE) 2,587 10.9 -13.7°
Reaches altitude 10° 08:44:59 10° 48° (NE) 1,687 10.3 -13.2°
Maximum altitude 08:47:28 17° 92° (E) 1,281 9.8 -12.8°
Drops below altitude 10° 08:49:54 10° 135° (SE) 1,656 9.8 -12.4°
Sets 08:52:28 0° 156° (SSE) 2,516 10.4 -12.0°
